Regional Weather Roundup
Issued by NWS

Home | Current Version | Previous Version | Graphics & Text | Print | Product List | Glossary On
Versions: 1 2 3 4 5 6 7 8 9 10 11 12 13 14 15 16 17 18 19 20 21 22 23 24 25 26 27 28 29 30 31 32 33 34 35 36 37 38 39 40 41 42 43 44 45 46 47 48 49 50
000
ASUS45 KPSR 181610
RWRAZ

ARIZONA HOURLY REGIONAL WEATHER ROUNDUP
NATIONAL WEATHER SERVICE PHOENIX AZ
900 AM MST WED JAN 18 2017

NOTE: FAIR INDICATES FEW OR NO CLOUDS BELOW 12,000 FEET WITH NO
SIGNIFICANT WEATHER AND/OR OBSTRUCTIONS TO VISIBILITY.

AZZ001>003-036-181700-
NORTHWEST ARIZONA

CITY           SKY/WX    TMP DP  RH WIND       PRES   REMARKS
BULLHEAD CITY  SUNNY     41  30  65 CALM      30.19R
KINGMAN          N/A     36  27  69 S5        30.15R WCI  32
$$

AZZ004>008-015-016-018-181700-
NORTH CENTRAL ARIZONA

CITY           SKY/WX    TMP DP  RH WIND       PRES   REMARKS
GRAND CANYON   SUNNY     25  23  92 CALM      30.16R
WILLIAMS       SUNNY     30  27  86 S6        30.16R WCI  24
PRESCOTT       SUNNY     34  29  82 CALM      30.17R
FLAGSTAFF      SUNNY     30  28  92 CALM      30.16R
PAYSON         SUNNY     37  32  81 CALM      30.19R
PAGE           SUNNY     36  26  67 CALM      30.15S
$$

AZZ009>014-017-181700-
NORTHEAST ARIZONA

CITY           SKY/WX    TMP DP  RH WIND       PRES   REMARKS
WINSLOW        SUNNY     32  30  92 SE6       30.17R WCI  26
SAINT JOHNS    CLOUDY    35  34  96 CALM      30.15R
SHOW LOW       PTSUNNY   32  28  86 S8        30.17R WCI  25
$$

AZZ023-181700-
GREATER PHOENIX AREA

CITY           SKY/WX    TMP DP  RH WIND       PRES   REMARKS
PHOENIX        MOSUNNY   49  40  71 E5        30.15R
BUCKEYE        SUNNY     45  45 100 CALM      30.17R
GLENDALE       SUNNY     46  46 100 CALM      30.17R
LUKE AFB       SUNNY     46  42  85 N5        30.15R
DEER VALLEY    SUNNY     49  39  68 N6        30.15R
SCOTTSDALE     SUNNY     47  40  76 CALM      30.16R
MESA-FALCON    SUNNY    N/A N/A N/A N9        30.13R
MESA-GATEWAY   MOSUNNY   45  41  87 E3        30.16S
CHANDLER       SUNNY     45  43  93 CALM      30.16S
$$

AZZ027-028-181700-
SOUTHWEST MARICOPA COUNTY AND PINAL COUNTY

CITY           SKY/WX    TMP DP  RH WIND       PRES   REMARKS
CASA GRANDE    SUNNY     46  42  86 CALM      30.17R
$$

AZZ503-504-507>509-181700-
SOUTHEAST ARIZONA

CITY           SKY/WX    TMP DP  RH WIND       PRES   REMARKS
TUCSON         SUNNY     46  39  76 S10       30.17R
DAVIS-MONTHAN  SUNNY     48  42  80 SE6       30.15S
RYAN FIELD       N/A     43  39  87 CALM      30.17R
NOGALES        SUNNY     40  36  86 CALM      30.17R
SIERRA VISTA   SUNNY     45  37  72 CALM      30.18R
DOUGLAS        SUNNY     40  38  93 CALM      30.18R
SAFFORD        SUNNY     44  40  85 SE3       30.16R
$$

AZZ020-021-025-026-031-181700-
SOUTHWEST ARIZONA

CITY           SKY/WX    TMP DP  RH WIND       PRES   REMARKS
YUMA           MOSUNNY   52  29  41 NE6       30.16R
$$

CAZ031-033-041-043-047-048-061-181700-
SOUTHERN CALIFORNIA

CITY           SKY/WX    TMP DP  RH WIND       PRES   REMARKS
DOWNTOWN L.A.  CLOUDY    50  41  71 CALM      30.19R
L.A. AIRPORT   PTSUNNY   51  44  77 NE6       30.19S
SAN DIEGO      MOSUNNY   53  43  68 CALM      30.20R
BURBANK        SUNNY     45  34  65 CALM      30.18R
ONTARIO        MOSUNNY   45  36  70 CALM      30.18R
RIVERSIDE      MOSUNNY   43  37  79 CALM      30.19R
PALM SPRINGS   SUNNY     48  34  58 NW7       30.17R
EL CENTRO NAS  MOSUNNY   49  38  65 CALM      30.17R
IMPERIAL       SUNNY     46  38  73 CALM      30.15S
BLYTHE         SUNNY     43  35  73 CALM      30.17R
NEEDLES        SUNNY     46  30  53 CALM      30.18R
$$

NVZ020-UTZ003-181700-
SOUTHERN NEVADA-UTAH

CITY           SKY/WX    TMP DP  RH WIND       PRES   REMARKS
LAS VEGAS      MOSUNNY   40  25  55 CALM      30.14S
SALT LAKE CITY MOSUNNY   22  18  85 CALM      30.18R FOG
$$

NMZ009-TXZ055-181700-
NEW MEXICO-WEST TEXAS

CITY           SKY/WX    TMP DP  RH WIND       PRES   REMARKS
ALBUQUERQUE    LGT RAIN  37  35  92 CALM      30.13R
EL PASO        MOSUNNY   39  36  89 S7        30.16R WCI  34
$$


........................KEY........................
SKY/WX - SKY CONDITION/WEATHER
TMP    - TEMPERATURE IN FAHRENHEIT
DP     - DEW POINT IN FAHRENHEIT
RH     - RELATIVE HUMIDITY IN PERCENT
WIND   - DIRECTION AND SPEED IN MILES PER HOUR (MPH)
VRB    - VARIABLE WIND DIRECTION
PRES   - MEAN SEA LEVEL PRESSURE IN INCHES OF MERCURY
         F - FALLING PRESSURE   R - RISING PRESSURE
         S - STEADY PRESSURE
VSB    - VISIBILITY IN MILES
HX     - HEAT INDEX IN FAHRENHEIT
WCI    - WIND CHILL INDEX IN FAHRENHEIT
TC     - TEMPERATURE IN CELSIUS WHICH IS ALSO KNOWN AS
         TEMPERATURE IN CENTIGRADE
AFB    - AIR FORCE BASE
         LUKE AFB IS LUKE AIR FORCE BASE
         DAVIS-MONTHAN IS DAVIS-MONTHAN AIR FORCE BASE
NAS    - NAVAL AIR STATION
         EL CENTRO NAS IS EL CENTRO NAVAL AIR STATION
N/A    - NOT AVAILABLE




USA.gov is the U.S. government's official web portal to all federal, state and local government web resources and services.